When you browse on this site, cookies collect data to enhance your experience and personalize the content and advertising you see.
Visit our Privacy Policy to learn more. By continuing to use the site, you agree to this use of cookies and data.
  • In Austria
  • List of Countries
  • For 7 days
  • Water Temperature
  • Satellite Maps
  • Weather Map
  • News
  • Weather Widgets
  • user-avatar
    Login

    Hourly Weather Tskhinvali

    Today, 21 January, Monday

    Time Temperature Precipitation Wind Pressure Humidity
    00:00 -3°C° 0 mm 2 mps 685 mmHg 68%
    01:00 -3°C° 0 mm 2 mps 685 mmHg 68%
    02:00 -3°C° 0 mm 2 mps 685 mmHg 69%
    03:00 -3°C° 0 mm 2 mps 685 mmHg 71%
    04:00 -3°C° 0 mm 2 mps 685 mmHg 70%
    05:00 -3°C° 0 mm 2 mps 685 mmHg 70%
    06:00 -4°C° 0 mm 2 mps 685 mmHg 70%
    07:00 -3°C° 0 mm 2 mps 684 mmHg 68%
    08:00 -2°C° 0 mm 2 mps 684 mmHg 66%
    09:00 -2°C° 0 mm 2 mps 684 mmHg 64%
    10:00 +1°C° 0 mm 2 mps 684 mmHg 61%
    11:00 +2°C° 0 mm 2 mps 683 mmHg 58%
    12:00 +2°C° 0 mm 3 mps 683 mmHg 54%
    13:00 +3°C° 0 mm 2 mps 683 mmHg 54%
    14:00 +3°C° 0 mm 2 mps 682 mmHg 54%
    15:00 +3°C° 0 mm 2 mps 682 mmHg 54%
    16:00 +2°C° 0 mm 2 mps 682 mmHg 57%
    17:00 -1°C° 0 mm 2 mps 682 mmHg 59%
    18:00 -2°C° 0 mm 2 mps 682 mmHg 62%
    19:00 -2°C° 0 mm 2 mps 682 mmHg 61%
    20:00 -3°C° 0 mm 2 mps 682 mmHg 61%
    21:00 -3°C° 0 mm 2 mps 682 mmHg 60%
    22:00 -3°C° 0 mm 2 mps 682 mmHg 59%
    23:00 -3°C° 0 mm 2 mps 682 mmHg 58%

    Tomorrow, 22 January, Tuesday

    Time Temperature Precipitation Wind Pressure Humidity
    00:00 -3°C° 0 mm 2 mps 682 mmHg 57%
    01:00 -3°C° 0 mm 2 mps 681 mmHg 56%
    02:00 -3°C° 0 mm 2 mps 681 mmHg 54%
    03:00 -3°C° 0 mm 2 mps 681 mmHg 53%
    04:00 -3°C° 0 mm 2 mps 681 mmHg 53%
    05:00 -3°C° 0 mm 2 mps 681 mmHg 53%
    06:00 -3°C° 0 mm 2 mps 681 mmHg 54%
    07:00 -2°C° 0 mm 2 mps 681 mmHg 54%
    08:00 -2°C° 0 mm 2 mps 682 mmHg 55%
    09:00 -1°C° 0 mm 2 mps 682 mmHg 56%
    10:00 +1°C° 0 mm 2 mps 682 mmHg 57%
    11:00 +1°C° 0 mm 3 mps 682 mmHg 59%
    12:00 +2°C° 0 mm 3 mps 682 mmHg 61%
    13:00 +2°C° 0 mm 3 mps 681 mmHg 64%
    14:00 +2°C° 0 mm 3 mps 681 mmHg 67%
    15:00 +2°C° 0 mm 3 mps 681 mmHg 70%
    16:00 +1°C° 0 mm 3 mps 682 mmHg 76%
    17:00 +1°C° 0 mm 2 mps 682 mmHg 81%
    18:00 -1°C° 0 mm 2 mps 682 mmHg 87%
    19:00 -1°C° 0 mm 2 mps 682 mmHg 86%
    20:00 +1°C° 0 mm 1 mps 682 mmHg 84%
    21:00 0°C° 0 mm 1 mps 683 mmHg 83%
    22:00 0°C° 0 mm 1 mps 683 mmHg 82%
    23:00 0°C° 0 mm 1 mps 683 mmHg 82%

    Day after tomorrow, 23 January, Wednesday

    Time Temperature Precipitation Wind Pressure Humidity
    00:00 0°C° 0 mm 1 mps 683 mmHg 81%
    01:00 0°C° 0 mm 1 mps 683 mmHg 80%
    02:00 0°C° 0 mm 1 mps 683 mmHg 78%
    03:00 -1°C° 0 mm 1 mps 683 mmHg 77%
    04:00 -1°C° 0 mm 1 mps 683 mmHg 75%
    05:00 -1°C° 0 mm 1 mps 682 mmHg 73%
    06:00 -3°C° 0 mm 2 mps 682 mmHg 71%
    07:00 -2°C° 0 mm 2 mps 683 mmHg 69%
    08:00 -2°C° 0 mm 2 mps 683 mmHg 68%
    09:00 -1°C° 0 mm 2 mps 684 mmHg 66%
    10:00 +1°C° 0 mm 2 mps 683 mmHg 65%
    11:00 +1°C° 0 mm 3 mps 683 mmHg 64%
    12:00 +2°C° 0 mm 3 mps 683 mmHg 63%
    13:00 +2°C° 0 mm 3 mps 683 mmHg 63%
    14:00 +2°C° 0 mm 3 mps 683 mmHg 63%
    15:00 +2°C° 0 mm 3 mps 683 mmHg 63%
    16:00 +1°C° 0 mm 3 mps 683 mmHg 65%
    17:00 -1°C° 0 mm 2 mps 683 mmHg 68%
    18:00 -2°C° 0 mm 2 mps 683 mmHg 71%
    19:00 -2°C° 0 mm 2 mps 684 mmHg 70%
    20:00 -2°C° 0 mm 2 mps 684 mmHg 69%
    21:00 -3°C° 0 mm 2 mps 684 mmHg 69%
    22:00 -3°C° 0 mm 2 mps 684 mmHg 69%
    23:00 -3°C° 0 mm 2 mps 684 mmHg 69%

    24 January, Thursday

    Time Temperature Precipitation Wind Pressure Humidity
    00:00 -3°C° 0 mm 2 mps 684 mmHg 70%
    01:00 -3°C° 0 mm 2 mps 684 mmHg 69%
    02:00 -3°C° 0 mm 2 mps 684 mmHg 69%
    03:00 -3°C° 0 mm 2 mps 684 mmHg 68%
    04:00 -3°C° 0 mm 2 mps 684 mmHg 67%
    05:00 -3°C° 0 mm 2 mps 683 mmHg 67%
    06:00 -3°C° 0 mm 2 mps 683 mmHg 66%
    07:00 -2°C° 0 mm 2 mps 683 mmHg 63%
    08:00 -2°C° 0 mm 2 mps 683 mmHg 60%
    09:00 -1°C° 0 mm 2 mps 683 mmHg 57%
    10:00 +1°C° 0 mm 3 mps 683 mmHg 54%
    11:00 +2°C° 0 mm 3 mps 683 mmHg 52%
    12:00 +3°C° 0 mm 3 mps 682 mmHg 49%
    13:00 +3°C° 0 mm 3 mps 682 mmHg 50%
    14:00 +3°C° 0 mm 3 mps 681 mmHg 51%
    15:00 +3°C° 0 mm 3 mps 681 mmHg 52%
    16:00 +2°C° 0 mm 3 mps 681 mmHg 54%
    17:00 +1°C° 0 mm 3 mps 681 mmHg 56%
    18:00 +1°C° 0 mm 2 mps 681 mmHg 57%
    19:00 +1°C° 0 mm 2 mps 681 mmHg 57%
    20:00 -1°C° 0 mm 2 mps 681 mmHg 56%
    21:00 -1°C° 0 mm 2 mps 681 mmHg 56%
    22:00 -1°C° 0 mm 2 mps 681 mmHg 56%
    23:00 -1°C° 0 mm 2 mps 681 mmHg 57%

    25 January, Friday

    Time Temperature Precipitation Wind Pressure Humidity
    00:00 -1°C° 0 mm 2 mps 681 mmHg 57%
    01:00 -1°C° 0 mm 2 mps 681 mmHg 57%
    02:00 -1°C° 0 mm 2 mps 681 mmHg 58%
    03:00 -1°C° 0 mm 2 mps 681 mmHg 58%
    04:00 -1°C° 0 mm 2 mps 680 mmHg 58%
    05:00 -1°C° 0 mm 2 mps 680 mmHg 57%
    06:00 -1°C° 0 mm 2 mps 680 mmHg 57%
    07:00 +2°C° 0 mm 1 mps 680 mmHg 56%
    08:00 +3°C° 0 mm 1 mps 680 mmHg 55%
    09:00 +3°C° 0 mm 1 mps 681 mmHg 55%
    10:00 +4°C° 0 mm 1 mps 680 mmHg 53%
    11:00 +5°C° 0 mm 1 mps 680 mmHg 52%
    12:00 +6°C° 0 mm 1 mps 680 mmHg 50%
    13:00 +7°C° 0 mm 1 mps 680 mmHg 54%
    14:00 +7°C° 0 mm 1 mps 680 mmHg 58%
    15:00 +7°C° 0 mm 1 mps 679 mmHg 62%
    16:00 +6°C° 0 mm 1 mps 680 mmHg 65%
    17:00 +5°C° 0 mm 1 mps 680 mmHg 69%
    18:00 +4°C° 0 mm 1 mps 680 mmHg 73%
    19:00 +2°C° 0 mm 2 mps 680 mmHg 72%
    20:00 +2°C° 0 mm 2 mps 680 mmHg 72%
    21:00 +2°C° 0 mm 2 mps 680 mmHg 71%
    22:00 +2°C° 0 mm 2 mps 680 mmHg 70%
    23:00 +2°C° 0 mm 2 mps 680 mmHg 70%

    26 January, Saturday

    Time Temperature Precipitation Wind Pressure Humidity
    00:00 +1°C° 0 mm 2 mps 680 mmHg 69%
    01:00 +1°C° 0 mm 2 mps 680 mmHg 69%
    02:00 +1°C° 0 mm 2 mps 680 mmHg 68%
    03:00 +1°C° 0 mm 2 mps 680 mmHg 68%
    04:00 +1°C° 0 mm 2 mps 679 mmHg 67%
    05:00 +1°C° 0 mm 2 mps 679 mmHg 66%
    06:00 +1°C° 0 mm 2 mps 679 mmHg 65%
    07:00 +3°C° 0 mm 1 mps 679 mmHg 63%
    08:00 +4°C° 0 mm 1 mps 679 mmHg 61%
    09:00 +4°C° 0 mm 1 mps 679 mmHg 59%
    10:00 +4°C° 0 mm 2 mps 679 mmHg 56%
    11:00 +6°C° 0 mm 2 mps 678 mmHg 54%
    12:00 +7°C° 0 mm 2 mps 678 mmHg 52%
    13:00 +7°C° 0 mm 2 mps 678 mmHg 54%
    14:00 +6°C° 0 mm 2 mps 677 mmHg 55%
    15:00 +6°C° 0 mm 2 mps 677 mmHg 57%
    16:00 +5°C° 0 mm 2 mps 677 mmHg 60%
    17:00 +4°C° 0 mm 2 mps 678 mmHg 62%
    18:00 +4°C° 0 mm 1 mps 678 mmHg 64%
    19:00 +4°C° 0 mm 1 mps 678 mmHg 65%
    20:00 +3°C° 0 mm 1 mps 678 mmHg 66%
    21:00 +3°C° 0 mm 1 mps 678 mmHg 67%
    22:00 +2°C° 0 mm 2 mps 678 mmHg 68%
    23:00 +1°C° 0 mm 2 mps 678 mmHg 68%
    Show more